User: anonymous   Login
Location: Oshawa
(43.9000°N, 78.8670°W)
Time: 14:55:17
(UTC-04:00)
Language:

Cosmos 2333 Rocket - Orbit

View from above orbital plane
View from above orbital plane
View from above satellite
View from above satellite

Ground track
Ground track

The orbit data is extracted from the following two-line orbital elements,

1 24298U 96051B   15241.43992909 -.00000181  00000-0 -71645-4 0  9993
2 24298 070.8415 008.6812 0013094 080.2401 280.0198 14.12398892978941
Epoch (UTC): 29 August 2015 10:33:29
Eccentricity: 0.0013094
inclination: 70.8415°
perigee height: 842 km
apogee height: 860 km
right ascension of ascending node: 8.6812°
argument of perigee: 80.2401°
revolutions per day: 14.12398892
mean anomaly at epoch: 280.0198°
orbit number at epoch: 97894

The dashed part of the orbit path shows where the satellite is in the earth's shadow,  

DLR